| time (UTC) | temp F | wind direction | speed knots | gust knots | rain 1hr in | rain 24hr in | rain mn in | humidity % | barometer mb |
| 20260508111531 | 61 | 0 | 0.0 | 1.7 | 0.05 | 0.77 | 0.08 | 86 | 1011.6 |
| 20260508110523 | 61 | 0.0 | 0.9 | 0.07 | 0.78 | 0.08 | 87 | 1011.6 | |
| 20260508105516 | 61 | 0.0 | 0.9 | 0.07 | 0.78 | 0.08 | 86 | 1011.6 | |
| 20260508104609 | 60 | 0.0 | 0.9 | 0.06 | 0.77 | 0.07 | 84 | 1011.9 | |
| 20260508103601 | 60 | 270 | 0.0 | 0.9 | 0.05 | 0.77 | 0.06 | 83 | 1012.1 |
| 20260508102552 | 61 | 270 | 0.0 | 1.7 | 0.02 | 0.74 | 0.04 | 83 | 1012.2 |
| 20260508101544 | 61 | 225 | 0.0 | 1.7 | 0.02 | 0.76 | 0.04 | 81 | 1012.1 |
| 20260508100537 | 61 | 0.0 | 0.9 | 0.00 | 0.73 | 0.01 | 80 | 1012.1 | |
| 20260508095530 | 61 | 315 | 0.9 | 1.7 | 0.00 | 0.73 | 0.01 | 79 | 1012.2 |
| 20260508094543 | 62 | 18 | 1.7 | 3.5 | 0.00 | 0.73 | 0.01 | 78 | 1012.2 |
| 20260508093614 | 63 | 279 | 1.7 | 3.5 | 0.01 | 0.73 | 0.01 | 79 | 1012.1 |
| 20260508092626 | 63 | 248 | 3.5 | 6.1 | 0.01 | 0.74 | 0.01 | 78 | 1012.0 |
| 20260508091558 | 64 | 248 | 1.7 | 3.5 | 0.01 | 0.74 | 0.01 | 76 | 1012.0 |
| 20260508090551 | 63 | 0.0 | 0.9 | 0.01 | 0.76 | 0.01 | 81 | 1011.8 | |
| 20260508085603 | 62 | 270 | 0.9 | 2.6 | 0.01 | 0.76 | 0.01 | 81 | 1011.6 |
| 20260508084535 | 62 | 225 | 1.7 | 3.5 | 0.01 | 0.77 | 0.01 | 82 | 1011.5 |
| 20260508083528 | 62 | 242 | 0.9 | 2.6 | 0.00 | 0.76 | 0.00 | 82 | 1011.5 |
| 20260508082520 | 61 | 225 | 0.9 | 1.7 | 0.00 | 0.76 | 0.00 | 81 | 1011.3 |
| 20260508081613 | 61 | 0.0 | 0.9 | 0.00 | 0.77 | 0.00 | 81 | 1011.3 | |
| 20260508080605 | 60 | 0.0 | 0.9 | 0.00 | 0.80 | 0.00 | 80 | 1011.5 | |
| 20260508075557 | 61 | 270 | 0.9 | 1.7 | 0.00 | 0.81 | 0.00 | 79 | 1011.4 |
| 20260508074550 | 61 | 270 | 0.9 | 1.7 | 0.00 | 0.83 | 0.00 | 77 | 1011.3 |
| 20260508073542 | 61 | 315 | 0.0 | 1.7 | 0.00 | 0.83 | 0.00 | 76 | 1010.6 |
| 20260508072534 | 61 | 315 | 0.9 | 1.7 | 0.00 | 0.83 | 0.00 | 75 | 1010.5 |
| 20260508071526 | 62 | 315 | 0.9 | 3.5 | 0.00 | 0.83 | 0.00 | 74 | 1010.3 |
| 20260508070518 | 63 | 315 | 0.0 | 1.7 | 0.00 | 0.83 | 0.00 | 74 | 1010.3 |
| 20260508065611 | 63 | 0.0 | 0.9 | 0.00 | 0.83 | 0.00 | 76 | 1010.3 | |
| 20260508064603 | 62 | 315 | 0.0 | 1.7 | 0.00 | 0.83 | 0.00 | 76 | 1010.5 |
| 20260508063616 | 62 | 270 | 0.0 | 1.7 | 0.00 | 0.83 | 0.00 | 80 | 1010.4 |
| 20260508062610 | 61 | 0.0 | 1.7 | 0.00 | 0.83 | 0.00 | 86 | 1010.2 | |
| 20260508061541 | 58 | 0.0 | 0.9 | 0.00 | 0.83 | 0.00 | 90 | 1010.1 | |
| 20260508060533 | 56 | 0.0 | 0.9 | 0.00 | 0.83 | 0.00 | 87 | 1010.0 | |
| 20260508055525 | 56 | 270 | 0.0 | 1.7 | 0.00 | 0.83 | 0.00 | 87 | 1009.9 |
| 20260508054558 | 56 | 0.0 | 0.9 | 0.00 | 0.83 | 0.00 | 87 | 1009.8 | |
| 20260508053612 | 56 | 0.0 | 0.9 | 0.00 | 0.83 | 0.00 | 88 | 1009.6 | |
| 20260508052603 | 55 | 0.0 | 0.0 | 0.00 | 0.83 | 0.00 | 88 | 1009.6 | |
| 20260508051555 | 55 | 324 | 0.9 | 1.7 | 0.00 | 0.83 | 0.00 | 89 | 1009.6 |
| 20260508050549 | 55 | 0.0 | 1.7 | 0.00 | 0.83 | 0.00 | 89 | 1009.5 | |
| 20260508045541 | 55 | 315 | 0.0 | 1.7 | 0.00 | 0.83 | 0.00 | 90 | 1009.3 |
| 20260508044532 | 55 | 332 | 0.0 | 1.7 | 0.00 | 0.83 | 0.00 | 90 | 1009.2 |
| 20260508043526 | 55 | 338 | 0.0 | 1.7 | 0.00 | 0.83 | 0.00 | 90 | 1009.1 |
| 20260508042518 | 55 | 315 | 0.0 | 1.7 | 0.00 | 0.83 | 0.00 | 90 | 1009.2 |
| 20260508041610 | 55 | 315 | 0.0 | 1.7 | 0.00 | 0.83 | 0.00 | 89 | 1009.3 |
| 20260508040602 | 55 | 315 | 0.9 | 1.7 | 0.00 | 0.83 | 0.00 | 90 | 1009.3 |
| 20260508035554 | 55 | 0.0 | 1.7 | 0.00 | 0.83 | 0.00 | 90 | 1009.4 | |
| 20260508034546 | 55 | 0.0 | 0.0 | 0.00 | 0.83 | 0.00 | 90 | 1009.0 | |
| 20260508033539 | 55 | 0.0 | 0.9 | 0.00 | 0.83 | 0.00 | 90 | 1009.0 | |
| 20260508032531 | 55 | 0.0 | 0.9 | 0.00 | 0.83 | 0.00 | 90 | 1009.0 | |
| 20260508031524 | 55 | 315 | 0.0 | 1.7 | 0.00 | 0.83 | 0.00 | 90 | 1009.2 |
| 20260508030518 | 55 | 315 | 0.0 | 1.7 | 0.00 | 0.83 | 0.00 | 90 | 1009.5 |
| 20260508025650 | 55 | 315 | 0.0 | 1.7 | 0.00 | 0.83 | 0.00 | 90 | 1009.7 |
| 20260508024602 | 55 | 0.0 | 0.9 | 0.00 | 0.83 | 0.00 | 90 | 1009.8 | |
| 20260508022548 | 55 | 315 | 0.0 | 1.7 | 0.00 | 0.83 | 0.00 | 91 | 1009.5 |
| 20260508021539 | 55 | 0.0 | 0.0 | 0.00 | 0.83 | 0.00 | 91 | 1009.6 | |
| 20260508020531 | 55 | 0.0 | 0.0 | 0.00 | 0.83 | 0.00 | 91 | 1009.8 | |
| 20260508015524 | 55 | 0.0 | 0.0 | 0.00 | 0.83 | 0.00 | 92 | 1009.8 | |
| 20260508014516 | 56 | 0.0 | 0.9 | 0.00 | 0.83 | 0.00 | 92 | 1009.8 | |
| 20260508013610 | 56 | 0.0 | 0.0 | 0.00 | 0.83 | 0.00 | 92 | 1009.8 | |
| 20260508012602 | 56 | 0 | 0.0 | 1.7 | 0.00 | 0.83 | 0.00 | 93 | 1009.9 |
| 20260508011554 | 56 | 315 | 0.0 | 1.7 | 0.00 | 0.83 | 0.00 | 93 | 1009.9 |
| 20260508010548 | 56 | 318 | 0.9 | 1.7 | 0.00 | 0.83 | 0.00 | 93 | 1010.1 |
| 20260508005539 | 56 | 315 | 0.9 | 2.6 | 0.00 | 0.83 | 0.00 | 93 | 1010.3 |
| 20260508004531 | 56 | 330 | 0.9 | 2.6 | 0.00 | 0.83 | 0.00 | 93 | 1010.4 |
| 20260508003525 | 56 | 330 | 0.0 | 1.7 | 0.00 | 0.83 | 0.00 | 93 | 1010.6 |
| 20260508002516 | 56 | 338 | 0.9 | 1.7 | 0.00 | 0.83 | 0.00 | 93 | 1010.9 |
| 20260508001609 | 56 | 339 | 0.0 | 1.7 | 0.00 | 0.83 | 0.00 | 93 | 1010.9 |
| 20260508000623 | 56 | 0 | 1.7 | 1.7 | 0.00 | 0.83 | 0.00 | 93 | 1010.9 |
| 20260507235555 | 56 | 330 | 0.0 | 1.7 | 0.00 | 0.83 | 0.00 | 93 | 1011.0 |
| 20260507234547 | 56 | 0.0 | 0.9 | 0.00 | 0.83 | 0.00 | 93 | 1011.0 | |
| 20260507233539 | 56 | 0.0 | 0.9 | 0.00 | 0.83 | 0.00 | 92 | 1011.2 | |
| 20260507232532 | 56 | 339 | 0.9 | 2.6 | 0.00 | 0.83 | 0.00 | 92 | 1011.1 |
| 20260507231524 | 56 | 0.0 | 0.9 | 0.00 | 0.83 | 0.00 | 92 | 1011.2 | |
| 20260507230517 | 57 | 0.0 | 0.9 | 0.00 | 0.83 | 0.00 | 92 | 1011.2 | |
| 20260507225610 | 57 | 0.0 | 0.0 | 0.00 | 0.83 | 0.00 | 92 | 1011.4 | |
| 20260507224604 | 57 | 0.0 | 0.0 | 0.00 | 0.83 | 0.00 | 92 | 1011.4 | |
| 20260507223554 | 57 | 315 | 0.9 | 2.6 | 0.00 | 0.83 | 0.00 | 92 | 1011.3 |
| 20260507222546 | 57 | 313 | 0.9 | 3.5 | 0.00 | 0.83 | 0.00 | 92 | 1011.3 |
| 20260507221538 | 57 | 333 | 0.9 | 3.5 | 0.00 | 0.83 | 0.00 | 92 | 1011.2 |
| 20260507220532 | 57 | 0.0 | 0.0 | 0.00 | 0.83 | 0.00 | 92 | 1011.1 | |
| 20260507215519 | 57 | 315 | 0.9 | 1.7 | 0.00 | 0.83 | 0.83 | 92 | 1011.0 |
| 20260507214652 | 57 | 326 | 0.0 | 1.7 | 0.00 | 0.83 | 0.83 | 92 | 1011.0 |
| 20260507213604 | 57 | 315 | 0.0 | 1.7 | 0.00 | 0.83 | 0.83 | 91 | 1010.9 |
| 20260507212556 | 57 | 0.0 | 1.7 | 0.00 | 0.83 | 0.83 | 91 | 1010.9 | |
| 20260507211549 | 57 | 0 | 0.0 | 1.7 | 0.00 | 0.83 | 0.83 | 91 | 1010.7 |
| 20260507210541 | 57 | 319 | 0.9 | 2.6 | 0.00 | 0.83 | 0.83 | 91 | 1010.7 |
| 20260507205552 | 58 | 337 | 0.9 | 2.6 | 0.00 | 0.83 | 0.83 | 91 | 1010.7 |
| 20260507204544 | 58 | 14 | 0.9 | 2.6 | 0.00 | 0.83 | 0.83 | 91 | 1010.5 |
| 20260507203657 | 58 | 0.0 | 0.9 | 0.00 | 0.83 | 0.83 | 91 | 1010.6 | |
| 20260507202609 | 58 | 45 | 2.6 | 5.2 | 0.00 | 0.83 | 0.83 | 91 | 1010.6 |
| 20260507201621 | 58 | 319 | 0.9 | 1.7 | 0.00 | 0.83 | 0.83 | 91 | 1010.4 |
| 20260507200553 | 58 | 315 | 0.9 | 1.7 | 0.00 | 0.83 | 0.83 | 91 | 1010.3 |
| 20260507195545 | 59 | 0.0 | 0.9 | 0.00 | 0.83 | 0.83 | 91 | 1010.2 | |
| 20260507194537 | 59 | 40 | 1.7 | 4.3 | 0.00 | 0.83 | 0.83 | 91 | 1010.1 |
| 20260507193550 | 59 | 37 | 3.5 | 5.2 | 0.00 | 0.83 | 0.83 | 91 | 1010.1 |
| 20260507192522 | 59 | 41 | 0.9 | 3.5 | 0.00 | 0.83 | 0.83 | 90 | 1009.8 |
| 20260507191614 | 59 | 12 | 1.7 | 3.5 | 0.00 | 0.83 | 0.83 | 90 | 1009.6 |
| 20260507190606 | 59 | 350 | 2.6 | 3.5 | 0.00 | 0.83 | 0.83 | 91 | 1009.4 |
| 20260507185559 | 59 | 47 | 1.7 | 6.1 | 0.00 | 0.83 | 0.83 | 91 | 1009.3 |
| 20260507184549 | 60 | 25 | 1.7 | 5.2 | 0.00 | 0.83 | 0.83 | 92 | 1009.2 |
| 20260507183542 | 61 | 21 | 2.6 | 7.0 | 0.01 | 0.83 | 0.83 | 92 | 1008.9 |
| 20260507182534 | 61 | 25 | 2.6 | 6.1 | 0.01 | 0.83 | 0.83 | 92 | 1008.6 |
| 20260507181527 | 61 | 46 | 0.9 | 3.5 | 0.01 | 0.83 | 0.83 | 91 | 1008.7 |
| 20260507180538 | 61 | 348 | 3.5 | 4.3 | 0.01 | 0.83 | 0.83 | 91 | 1008.5 |
| 20260507175611 | 62 | 304 | 1.7 | 3.5 | 0.01 | 0.83 | 0.83 | 91 | 1008.4 |
| 20260507174603 | 62 | 359 | 1.7 | 3.5 | 0.04 | 0.83 | 0.83 | 91 | 1008.5 |
| 20260507173555 | 62 | 359 | 1.7 | 4.3 | 0.05 | 0.81 | 0.81 | 90 | 1008.6 |
| 20260507172548 | 62 | 328 | 1.7 | 2.6 | 0.06 | 0.81 | 0.81 | 90 | 1008.4 |
| 20260507171540 | 62 | 359 | 1.7 | 5.2 | 0.06 | 0.81 | 0.81 | 88 | 1008.5 |
| 20260507170531 | 62 | 45 | 1.7 | 1.7 | 0.06 | 0.81 | 0.81 | 85 | 1008.5 |
| 20260507165543 | 62 | 360 | 0.9 | 1.7 | 0.06 | 0.81 | 0.81 | 83 | 1008.5 |
| 20260507164537 | 62 | 351 | 1.7 | 2.6 | 0.04 | 0.79 | 0.79 | 80 | 1008.4 |
| 20260507163609 | 63 | 15 | 0.9 | 3.5 | 0.01 | 0.77 | 0.77 | 77 | 1008.2 |
| 20260507162601 | 65 | 22 | 4.3 | 7.8 | 0.00 | 0.76 | 0.76 | 79 | 1008.1 |
| 20260507161553 | 66 | 19 | 0.9 | 3.5 | 0.00 | 0.76 | 0.76 | 78 | 1008.0 |
| 20260507160546 | 66 | 0.0 | 0.9 | 0.00 | 0.76 | 0.76 | 76 | 1007.9 | |
| 20260507155537 | 66 | 38 | 1.7 | 2.6 | 0.00 | 0.76 | 0.76 | 77 | 1007.8 |
| 20260507154529 | 66 | 45 | 1.7 | 3.5 | 0.00 | 0.76 | 0.76 | 77 | 1007.7 |
| 20260507153522 | 65 | 41 | 2.6 | 4.3 | 0.00 | 0.76 | 0.76 | 78 | 1008.0 |
| 20260507152614 | 65 | 353 | 1.7 | 3.5 | 0.00 | 0.76 | 0.76 | 78 | 1007.9 |
| 20260507151606 | 65 | 53 | 3.5 | 5.2 | 0.00 | 0.76 | 0.76 | 77 | 1007.9 |
| 20260507150558 | 65 | 315 | 2.6 | 4.3 | 0.00 | 0.76 | 0.76 | 76 | 1007.9 |
| 20260507145551 | 66 | 69 | 2.6 | 3.5 | 0.00 | 0.76 | 0.76 | 76 | 1007.9 |
| 20260507144542 | 65 | 29 | 2.6 | 5.2 | 0.00 | 0.76 | 0.76 | 78 | 1008.0 |
| 20260507143534 | 64 | 21 | 1.7 | 3.5 | 0.00 | 0.76 | 0.76 | 80 | 1008.0 |
| 20260507142527 | 63 | 2 | 1.7 | 2.6 | 0.01 | 0.76 | 0.76 | 84 | 1007.9 |
| 20260507141519 | 63 | 26 | 0.9 | 3.5 | 0.01 | 0.76 | 0.76 | 88 | 1007.9 |
| 20260507140611 | 62 | 0 | 1.7 | 3.5 | 0.02 | 0.76 | 0.76 | 88 | 1007.9 |
| 20260507135605 | 62 | 307 | 1.7 | 3.5 | 0.02 | 0.76 | 0.76 | 90 | 1007.9 |
| 20260507134556 | 61 | 344 | 3.5 | 6.1 | 0.04 | 0.76 | 0.76 | 91 | 1007.9 |
| 20260507133548 | 61 | 330 | 1.7 | 3.5 | 0.06 | 0.76 | 0.76 | 92 | 1008.4 |
| 20260507132541 | 60 | 357 | 0.9 | 2.6 | 0.06 | 0.74 | 0.74 | 92 | 1008.6 |
| 20260507131532 | 59 | 21 | 4.3 | 8.7 | 0.13 | 0.74 | 0.74 | 94 | 1008.8 |
| 20260507130545 | 62 | 45 | 0.9 | 1.7 | 0.27 | 0.73 | 0.73 | 96 | 1009.0 |
| 20260507125517 | 62 | 0.0 | 0.9 | 0.32 | 0.73 | 0.73 | 96 | 1008.7 | |
| 20260507124609 | 60 | 326 | 0.9 | 3.5 | 0.35 | 0.72 | 0.72 | 95 | 1008.8 |
| 20260507123602 | 59 | 180 | 0.0 | 1.7 | 0.47 | 0.70 | 0.70 | 94 | 1009.1 |
| 20260507122555 | 58 | 146 | 0.9 | 3.5 | 0.52 | 0.69 | 0.69 | 93 | 1009.1 |
| 20260507121548 | 57 | 215 | 1.7 | 4.3 | 0.47 | 0.61 | 0.61 | 92 | 1009.2 |
| 20260507120539 | 56 | 180 | 3.5 | 6.1 | 0.33 | 0.46 | 0.46 | 90 | 1009.2 |
| 20260507115551 | 56 | 146 | 8.7 | 13.0 | 0.28 | 0.41 | 0.41 | 90 | 1009.1 |
| 20260507114523 | 58 | 172 | 9.6 | 14.8 | 0.24 | 0.37 | 0.37 | 89 | 1010.0 |
| 20260507113616 | 60 | 157 | 4.3 | 11.3 | 0.11 | 0.22 | 0.22 | 87 | 1009.6 |
| 20260507112609 | 60 | 272 | 2.6 | 5.2 | 0.05 | 0.17 | 0.17 | 87 | 1009.1 |